Torna al catalogo

FENGYUN 1C DEB

AttivoPO
NORAD 31619·DEBRIS·🇨🇳 China

Lanciato May 10, 1999 da Taiyuan Satellite Launch Center

Loading…

Prossimi Passaggi (prossime 24 ore)

TLE

AggiornatoSource: Space-Track

Epoca: Sep 13, 2026, 22:27 UTC

1 31619U 99025BZZ 26256.93549793  .00124859  00000-0  46644-2 0  9990
2 31619  99.0395 141.5248 0043399 111.0769 249.5113 15.25952654676250

Traccia FENGYUN 1C DEB in tempo reale con AllMySat

Download on the App Store